Flag Weather past 2 weeks in Acworth, Georgia, U.S.A.

Now
40 °F

Passing clouds.


Feels Like: 40 °F
Forecast: 34 / 46 °F
Wind: No wind

Location: Cartersville Airport

Current Time: Nov 27, 2014 at 6:57:34 AM

Latest Report: Nov 27, 2014 at 5:53 AM


Visibility: 10 mi

Pressure: 30.16 "Hg

Humidity: 68%

Dew point: 30 °F

Location of AcworthLocation

Historic Weather in Acworth — Graph

°F

Acworth temperature yesterday

Maximum temperature yesterday: 55 °F (at 2:53 PM)
Minimum temperature yesterday: 39 °F (at 7:53 AM)
Average temperature yesterday: 47 °F

Past Weeks' High & Low Weather Summary

 TemperatureHumidityPressure
High73 °F (Nov 24, 2:53 PM)96% (Nov 17, 5:53 AM)30.47 "Hg (Nov 17, 5:53 AM)
Low14 °F (Nov 19, 4:53 AM)26% (Nov 22, 12:53 PM)29.62 "Hg (Nov 23, 5:53 PM)
Average43 °F63%30.15 "Hg
* Reported Nov 12 5:53 AM — Nov 27 5:53 AM, Acworth, Weather by CustomWeather, © 2014

Note: Actual official high and low records may vary slightly from our data, if they occured in-between our weather recording intervals... More about our weather records

Advertising

Acworth weather history for previous 24 hours

 ConditionsComfort  
Time TempWeatherWind HumidityBarometerVisibility
5:53 AM
Nov 27
40 °FPassing clouds.No wind68%30.16 "Hg10 mi
4:53 AM41 °FClear.3 mph65%30.14 "Hg10 mi
3:53 AM42 °FPassing clouds.3 mph60%30.13 "Hg10 mi
2:53 AM43 °FClear.No wind58%30.10 "Hg10 mi
1:53 AM45 °FClear.3 mph48%30.09 "Hg10 mi
12:53 AM48 °FClear.7 mph41%30.07 "Hg10 mi
11:53 PM
Nov 26
48 °FPassing clouds.6 mph48%30.04 "Hg10 mi
10:53 PM50 °FMostly cloudy.3 mph44%30.02 "Hg10 mi
9:53 PM47 °FMostly cloudy.3 mph52%30.06 "Hg10 mi
8:53 PM48 °FCool.N/A44%30.06 "HgN/A
6:53 PM42 °FPassing clouds.No wind68%30.06 "Hg10 mi
5:53 PM45 °FPassing clouds.No wind58%30.07 "Hg10 mi
4:53 PM52 °FSunny.No wind34%30.06 "Hg10 mi
3:53 PM54 °FSunny.No wind30%30.06 "Hg10 mi
2:53 PM55 °FSunny.5 mph30%30.06 "Hg10 mi
1:53 PM53 °FSunny.5 mph34%30.07 "Hg10 mi
12:53 PM52 °FSunny.3 mph34%30.09 "Hg10 mi
11:53 AM50 °FSunny.3 mph39%30.11 "Hg10 mi
10:53 AM48 °FSunny.5 mph43%30.11 "Hg10 mi
9:53 AM46 °FSunny.3 mph50%30.11 "Hg10 mi
8:53 AM43 °FSunny.No wind60%30.09 "Hg10 mi
7:53 AM39 °FSunny.No wind76%30.06 "Hg10 mi
6:53 AM40 °FClear.No wind70%30.03 "Hg10 mi
Weather by CustomWeather, © 2014

See weather overviewHow to use our weather pages